When you browse on this site, cookies collect data to enhance your experience and personalize the content and advertising you see.
Visit our Privacy Policy to learn more. By continuing to use the site, you agree to this use of cookies and data.
  • In Hungary
  • List of Countries
  • For 7 days
  • Water Temperature
  • Satellite Maps
  • Weather Map
  • News
  • Weather Widgets
  • user-avatar
    Login

    Hourly Weather Pershotravensk

    Today, 21 April, Sunday

    Time Temperature Precipitation Wind Pressure Humidity
    00:00 +6°C° 0 mm 2 mps 756 mmHg 53%
    01:00 +6°C° 0 mm 1 mps 756 mmHg 54%
    02:00 +6°C° 0 mm 1 mps 756 mmHg 57%
    03:00 +6°C° 0 mm 1 mps 756 mmHg 58%
    04:00 +5°C° 0 mm 1 mps 756 mmHg 59%
    05:00 +5°C° 0 mm 1 mps 756 mmHg 59%
    06:00 +6°C° 0 mm 2 mps 756 mmHg 54%
    07:00 +8°C° 0 mm 2 mps 757 mmHg 48%
    08:00 +10°C° 0 mm 3 mps 757 mmHg 43%
    09:00 +11°C° 0 mm 3 mps 757 mmHg 38%
    10:00 +12°C° 0 mm 4 mps 757 mmHg 34%
    11:00 +13°C° 0 mm 4 mps 757 mmHg 30%
    12:00 +14°C° 0 mm 4 mps 756 mmHg 30%
    13:00 +14°C° 0 mm 4 mps 756 mmHg 31%
    14:00 +14°C° 0 mm 4 mps 756 mmHg 31%
    15:00 +14°C° 0 mm 4 mps 756 mmHg 33%
    16:00 +14°C° 0 mm 3 mps 756 mmHg 35%
    17:00 +13°C° 0 mm 3 mps 756 mmHg 37%
    18:00 +12°C° 0 mm 3 mps 756 mmHg 40%
    19:00 +12°C° 0 mm 3 mps 756 mmHg 43%
    20:00 +11°C° 0 mm 3 mps 757 mmHg 45%
    21:00 +10°C° 0 mm 3 mps 757 mmHg 47%
    22:00 +10°C° 0 mm 3 mps 757 mmHg 49%
    23:00 +9°C° 0 mm 3 mps 757 mmHg 51%

    Tomorrow, 22 April, Monday

    Time Temperature Precipitation Wind Pressure Humidity
    00:00 +8°C° 0 mm 3 mps 757 mmHg 53%
    01:00 +8°C° 0 mm 3 mps 757 mmHg 54%
    02:00 +7°C° 0 mm 2 mps 757 mmHg 55%
    03:00 +7°C° 0 mm 3 mps 757 mmHg 57%
    04:00 +5°C° 0 mm 3 mps 757 mmHg 58%
    05:00 +5°C° 0 mm 3 mps 758 mmHg 60%
    06:00 +8°C° 0 mm 3 mps 758 mmHg 55%
    07:00 +10°C° 0 mm 4 mps 758 mmHg 49%
    08:00 +12°C° 0 mm 4 mps 758 mmHg 44%
    09:00 +13°C° 0 mm 4 mps 758 mmHg 42%
    10:00 +13°C° 0 mm 4 mps 758 mmHg 39%
    11:00 +14°C° 0 mm 4 mps 758 mmHg 37%
    12:00 +14°C° 0 mm 4 mps 758 mmHg 36%
    13:00 +15°C° 0 mm 4 mps 758 mmHg 36%
    14:00 +15°C° 0 mm 4 mps 758 mmHg 35%
    15:00 +15°C° 0 mm 4 mps 757 mmHg 36%
    16:00 +15°C° 0 mm 4 mps 757 mmHg 38%
    17:00 +15°C° 0 mm 4 mps 757 mmHg 39%
    18:00 +13°C° 0 mm 3 mps 758 mmHg 44%
    19:00 +12°C° 0 mm 3 mps 758 mmHg 49%
    20:00 +10°C° 0 mm 2 mps 758 mmHg 54%
    21:00 +10°C° 0 mm 2 mps 758 mmHg 55%
    22:00 +9°C° 0 mm 2 mps 759 mmHg 57%
    23:00 +9°C° 0 mm 2 mps 759 mmHg 59%

    Day after tomorrow, 23 April, Tuesday

    Time Temperature Precipitation Wind Pressure Humidity
    00:00 +9°C° 0 mm 2 mps 759 mmHg 59%
    01:00 +9°C° 0 mm 2 mps 759 mmHg 60%
    02:00 +8°C° 0 mm 2 mps 759 mmHg 60%
    03:00 +10°C° 0 mm 1 mps 759 mmHg 60%
    04:00 +10°C° 0 mm 1 mps 760 mmHg 60%
    05:00 +10°C° 0 mm 1 mps 760 mmHg 60%
    06:00 +11°C° 0 mm 1 mps 760 mmHg 56%
    07:00 +13°C° 0 mm 1 mps 760 mmHg 51%
    08:00 +14°C° 0 mm 1 mps 761 mmHg 47%
    09:00 +15°C° 0 mm 2 mps 761 mmHg 45%
    10:00 +15°C° 0 mm 2 mps 761 mmHg 43%
    11:00 +16°C° 0 mm 2 mps 761 mmHg 41%
    12:00 +16°C° 0 mm 2 mps 761 mmHg 40%
    13:00 +16°C° 0 mm 1 mps 761 mmHg 39%
    14:00 +18°C° 0 mm 1 mps 761 mmHg 38%
    15:00 +16°C° 0 mm 1 mps 761 mmHg 41%
    16:00 +16°C° 0 mm 1 mps 761 mmHg 45%
    17:00 +15°C° 0 mm 2 mps 760 mmHg 48%
    18:00 +14°C° 0 mm 1 mps 761 mmHg 51%
    19:00 +13°C° 0 mm 1 mps 761 mmHg 53%
    20:00 +12°C° 0 mm 1 mps 761 mmHg 55%
    21:00 +12°C° 0 mm 1 mps 761 mmHg 56%
    22:00 +10°C° 0 mm 0 mps 761 mmHg 57%
    23:00 +10°C° 0 mm 0 mps 761 mmHg 57%

    24 April, Wednesday

    Time Temperature Precipitation Wind Pressure Humidity
    00:00 +10°C° 0 mm 0 mps 761 mmHg 58%
    01:00 +9°C° 0 mm 0 mps 761 mmHg 60%
    02:00 +9°C° 0 mm 0 mps 761 mmHg 61%
    03:00 +9°C° 0 mm 1 mps 761 mmHg 62%
    04:00 +9°C° 0 mm 1 mps 761 mmHg 63%
    05:00 +9°C° 0 mm 1 mps 761 mmHg 64%
    06:00 +11°C° 0 mm 1 mps 762 mmHg 59%
    07:00 +13°C° 0 mm 2 mps 762 mmHg 53%
    08:00 +15°C° 0 mm 2 mps 762 mmHg 47%
    09:00 +16°C° 0 mm 2 mps 762 mmHg 44%
    10:00 +17°C° 0 mm 2 mps 762 mmHg 41%
    11:00 +18°C° 0 mm 3 mps 762 mmHg 37%
    12:00 +19°C° 0 mm 3 mps 761 mmHg 36%
    13:00 +20°C° 0 mm 3 mps 761 mmHg 36%
    14:00 +20°C° 0 mm 3 mps 761 mmHg 35%
    15:00 +20°C° 0 mm 2 mps 761 mmHg 38%
    16:00 +20°C° 0 mm 2 mps 760 mmHg 41%
    17:00 +19°C° 0 mm 2 mps 760 mmHg 44%
    18:00 +18°C° 0 mm 2 mps 760 mmHg 48%
    19:00 +17°C° 0 mm 2 mps 761 mmHg 51%
    20:00 +16°C° 0 mm 2 mps 761 mmHg 54%
    21:00 +15°C° 0 mm 2 mps 761 mmHg 56%
    22:00 +15°C° 0 mm 2 mps 761 mmHg 58%
    23:00 +14°C° 0 mm 2 mps 761 mmHg 59%

    25 April, Thursday

    Time Temperature Precipitation Wind Pressure Humidity
    00:00 +14°C° 0 mm 2 mps 761 mmHg 62%
    01:00 +13°C° 0 mm 2 mps 761 mmHg 64%
    02:00 +13°C° 0 mm 2 mps 761 mmHg 66%
    03:00 +12°C° 0 mm 2 mps 761 mmHg 68%
    04:00 +12°C° 0 mm 2 mps 761 mmHg 70%
    05:00 +12°C° 0 mm 2 mps 761 mmHg 72%
    06:00 +14°C° 0 mm 2 mps 761 mmHg 66%
    07:00 +16°C° 0 mm 2 mps 761 mmHg 60%
    08:00 +18°C° 0 mm 2 mps 761 mmHg 54%
    09:00 +19°C° 0 mm 2 mps 761 mmHg 49%
    10:00 +21°C° 0 mm 2 mps 761 mmHg 44%
    11:00 +22°C° 0 mm 3 mps 761 mmHg 39%
    12:00 +23°C° 0 mm 2 mps 760 mmHg 38%
    13:00 +24°C° 0 mm 2 mps 760 mmHg 36%
    14:00 +24°C° 0 mm 2 mps 760 mmHg 35%
    15:00 +24°C° 0 mm 2 mps 760 mmHg 36%
    16:00 +24°C° 0 mm 2 mps 759 mmHg 38%
    17:00 +24°C° 0 mm 2 mps 759 mmHg 39%
    18:00 +22°C° 0 mm 1 mps 759 mmHg 44%
    19:00 +20°C° 0 mm 1 mps 759 mmHg 48%
    20:00 +19°C° 0 mm 1 mps 759 mmHg 52%
    21:00 +18°C° 0 mm 1 mps 759 mmHg 54%
    22:00 +18°C° 0 mm 1 mps 759 mmHg 56%
    23:00 +16°C° 0 mm 1 mps 759 mmHg 58%

    26 April, Friday

    Time Temperature Precipitation Wind Pressure Humidity
    00:00 +16°C° 0 mm 1 mps 758 mmHg 59%
    01:00 +15°C° 0 mm 1 mps 758 mmHg 61%
    02:00 +15°C° 0 mm 1 mps 758 mmHg 63%
    03:00 +15°C° 0 mm 1 mps 758 mmHg 64%
    04:00 +14°C° 0 mm 1 mps 758 mmHg 66%
    05:00 +14°C° 0 mm 1 mps 758 mmHg 67%
    06:00 +16°C° 0 mm 1 mps 758 mmHg 62%
    07:00 +18°C° 0 mm 2 mps 758 mmHg 56%
    08:00 +20°C° 0 mm 2 mps 758 mmHg 50%
    09:00 +21°C° 0 mm 2 mps 758 mmHg 46%
    10:00 +23°C° 0 mm 2 mps 758 mmHg 41%
    11:00 +25°C° 0 mm 2 mps 757 mmHg 37%
    12:00 +24°C° 0 mm 2 mps 757 mmHg 38%
    13:00 +24°C° 0 mm 2 mps 757 mmHg 39%
    14:00 +24°C° 0 mm 2 mps 756 mmHg 40%
    15:00 +24°C° 0 mm 2 mps 756 mmHg 43%
    16:00 +23°C° 0 mm 2 mps 756 mmHg 47%
    17:00 +23°C° 0 mm 2 mps 756 mmHg 50%
    18:00 +21°C° 0 mm 2 mps 756 mmHg 51%
    19:00 +20°C° 0 mm 2 mps 756 mmHg 53%
    20:00 +19°C° 0 mm 2 mps 756 mmHg 54%
    21:00 +19°C° 0 mm 2 mps 755 mmHg 56%
    22:00 +18°C° 0 mm 2 mps 755 mmHg 58%
    23:00 +18°C° 0 mm 2 mps 755 mmHg 61%
    Show more